Location: Bed?ichov
(48.7167°N, 14.2000°E)
Time: 10:38:11
(UTC+00:00)

Daily predictions for brighter satellites

Satellite Brightness Start Highest point End
(mag) Time Altitude Azimuth Time Altitude Azimuth Time Altitude Azimuth
USA 276 2.7 19:14:35 10° W 19:17:38 45° SSW 19:20:40 10° SE
USA 234 4.4 19:14:59 10° ENE 19:21:07 44° N 19:27:15 10° WNW
SAR-Lupe-1 4.4 19:19:21 10° N 19:22:56 72° WNW 19:26:29 10° SSW
SAR-Lupe-4 3.7 19:20:58 10° NNE 19:24:34 79° WNW 19:28:09 10° SSW
Cosmos 2219 Rocket 4.0 19:23:01 10° N 19:27:02 20° NE 19:31:02 10° E
Spot 2 Rocket 4.4 19:23:20 10° SE 19:27:55 34° ENE 19:32:30 10° N
Cosmos 1633 3.1 19:25:52 10° SSW 19:29:26 62° WNW 19:33:02 10° N
BREEZE-M DEB (TANK) 3.5 19:27:41 10° SW 19:31:10 53° SE 19:42:39 10° ENE
Cosmos 1680 Rocket 4.0 19:30:11 10° S 19:35:01 38° ESE 19:39:51 10° NE
Cosmos 1076 Rocket 4.0 19:32:14 10° SSW 19:36:33 65° WNW 19:40:56 10° N
Resurs 01 Rocket 1.7 19:32:36 10° SSE 19:37:03 87° WSW 19:41:33 10° NNW
SL-16 R/B 2.2 19:35:08 10° NNW 19:40:51 84° ENE 19:46:27 10° SSE
Cosmos 1151 Rocket 3.6 19:36:57 10° N 19:41:07 42° ENE 19:44:57 12° SE
Terra 3.3 19:40:07 10° ESE 19:43:50 24° ENE 19:47:37 10° N
ATLAS 5 CENTAUR R/B 3.8 19:40:29 10° NNW 19:44:46 26° NNE 19:49:41 10° E
Meteor 2-3 Rocket 3.7 19:41:43 10° S 19:47:22 73° E 19:53:07 10° NNE
Cosmos 332 Rocket 4.3 19:42:33 10° NNW 19:47:22 59° WSW 19:52:11 10° S
SPOT 3 Rocket 3.6 19:42:34 10° SSE 19:47:48 88° WSW 19:53:04 10° NNW
NOSS 2-1 (E) 4.1 19:45:44 10° S 19:48:21 22° ESE 19:50:59 10° ENE
CZ-2C R/B 4.0 19:45:05 10° NNE 19:49:26 45° E 19:53:42 10° S
Cosmos 2237 4.4 19:45:09 10° NNW 19:50:51 63° ENE 19:55:45 14° SE
Cosmos 1933 3.5 19:48:13 10° NNW 19:52:16 73° W 19:56:17 10° S
Cosmos 1271 Rocket 2.9 19:49:34 10° NNW 19:53:36 81° W 19:57:35 10° S
NOSS 3-1 (C) 4.5 19:47:11 10° NW 19:54:11 54° NE 20:02:01 12° ESE
COSMOS 2428 4.3 19:49:55 10° N 19:54:32 24° NE 19:59:06 10° E
Cosmos 1328 Rocket 4.1 19:50:27 10° N 19:54:44 44° ENE 19:58:06 15° SE
Cosmos 1766 Rocket 4.0 19:50:56 10° SSE 19:55:05 43° E 19:59:14 10° NNE
Gbstr 26 Del rocket 3.5 19:51:53 10° WNW 19:55:23 39° SSW 19:58:12 15° SSE
OBJECT-B 4.1 19:57:03 10° W 19:57:32 10° W 19:58:01 10° W
SPOT 5 3.3 19:57:34 16° SE 20:00:44 40° ENE 20:04:55 10° N
CZ-3B R/B 4.2 19:42:11 10° W 20:01:16 59° N 20:05:48 10° E
IGS 5A 4.4 19:57:21 10° S 20:01:21 47° W 20:05:23 10° NNW
ARIANE 5 R/B 3.0 19:58:58 15° SE 20:02:26 51° ENE 20:06:44 10° N
Cosmos 292 Rocket 4.5 20:00:52 10° N 20:05:23 41° ENE 20:08:41 17° ESE
Cosmos 2195 Rocket 4.5 19:59:37 10° S 20:05:45 89° WNW 20:11:54 10° N
Meteor 2-6 Rocket 4.4 20:00:28 10° N 20:05:45 52° ENE 20:09:47 17° SE
Cosmos 1862 4.1 20:04:11 18° SE 20:06:32 32° E 20:10:07 10° NNE
Ariane Rocket 4.5 20:02:30 10° SSW 20:07:06 34° W 20:11:44 10° NNW
Cosmos 1782 2.9 20:04:12 10° NNW 20:08:14 81° W 20:11:44 13° S
Cosmos 1624 Rocket 4.0 20:07:00 10° NNW 20:12:13 74° ENE 20:16:05 18° SSE
Cosmos 2082 Rocket 4.3 20:09:02 10° WSW 20:14:01 31° NW 20:19:03 10° NNE
Cosmos 220 Rocket 4.0 20:11:03 10° NNW 20:15:25 81° WSW 20:18:36 18° SSE
ATLAS 3B R/B 4.3 20:13:48 10° WNW 20:19:39 28° WSW 20:25:39 10° SSW
Cosmos 2360 Rocket 2.2 20:14:16 10° NNW 20:19:56 79° ENE 20:23:55 20° SSE
Cosmos 1420 Rocket 4.2 20:15:24 10° NNW 20:20:42 60° ENE 20:24:12 21° SE
Cosmos 1174 3.4 20:22:17 10° NNW 20:25:16 56° NE 20:26:29 30° ESE
COSMOS 2487 4.4 20:26:57 15° E 20:26:57 15° E 20:28:24 10° ENE
USA 267 4.5 20:23:10 10° E 20:27:27 18° ESE 20:27:32 18° ESE
NOSS 3-1 (A) 4.5 20:23:36 10° NW 20:30:39 56° NE 20:37:35 15° ESE
NOSS 2-1 (C) 2.7 20:29:10 10° SSW 20:32:26 73° SE 20:35:49 10° NE
Cosmos 2026 Rocket 4.4 20:29:50 10° SSW 20:36:06 65° WNW 20:42:20 10° N
Cosmos 1500 Rocket 4.4 20:34:48 26° SE 20:36:23 34° E 20:40:24 10° NNE
Cosmos 2084 3.3 20:34:00 10° SW 20:38:05 84° NW 20:42:17 10° NE
Cosmos 1812 2.8 20:34:27 10° NNW 20:38:18 73° W 20:40:31 24° S
COSMOS 2455 3.4 20:34:51 19° SSE 20:38:22 36° ESE 20:43:49 10° NE
Cosmos 1833 4.3 20:33:35 10° S 20:39:14 59° ESE 20:44:54 10° NE
GP-B 3.8 20:35:25 10° N 20:39:45 53° W 20:44:01 10° SSW
NOSS 2-1 (D) 2.7 20:36:54 10° SW 20:40:11 88° SE 20:43:37 10° NE
Meteor 1-27 Rocket 4.2 20:34:41 10° N 20:40:11 49° ENE 20:43:22 25° SE
Cosmos 2333 Rocket 2.4 20:35:27 10° NNW 20:41:04 60° ENE 20:44:24 24° SE
Cosmos 1452 Rocket 4.0 20:38:00 10° NNW 20:43:08 49° ENE 20:45:57 25° SE
ERS-1 Rocket 3.0 20:40:25 22° S 20:43:44 81° WSW 20:48:48 10° NNW
Meteor 2-16 Rocket 4.5 20:42:27 21° SSE 20:46:34 61° E 20:52:33 10° NNE
SL-27 R/B 2.4 20:44:41 18° SSW 20:47:15 88° WNW 20:50:53 10° NNE
Cosmos 2322 3.9 20:42:34 10° NNW 20:48:17 64° ENE 20:51:30 26° SE
H-2A R/B 4.1 20:45:42 10° NNE 20:49:37 37° E 20:50:39 32° SE
Okean 3 Rocket 4.3 20:48:21 10° SSW 20:52:44 53° WNW 20:57:12 10° N
Cosmos 2056 Rocket 4.0 20:47:48 10° NNW 20:53:01 54° WSW 20:56:16 22° S
Cosmos 1408 Rocket 3.4 20:50:54 23° S 20:53:33 87° E 20:57:53 10° N
Cosmos 2237 Rocket 3.8 20:48:56 10° N 20:53:36 25° NE 20:57:41 12° E
Cosmos 2322 Rocket 3.3 20:48:53 10° NW 20:54:02 37° WSW 20:57:55 16° SSW
Cosmos 1743 Rocket 3.8 20:55:45 34° SSE 20:57:22 53° E 21:01:42 10° NNE
Sich 1 4.3 20:57:14 24° ESE 20:57:50 25° E 21:01:23 10° NNE
CZ-4B DEB 4.1 21:00:12 58° SSE 21:00:44 81° ENE 21:03:56 10° N
USA 234 4.0 20:57:10 10° E 21:03:28 51° NNE 21:09:46 10° WNW
Meteor 1-10 Rocket 4.3 20:58:29 10° NNW 21:04:02 72° W 21:07:16 26° S
Gblst 52 Del rocket 4.5 21:00:56 10° WNW 21:07:00 89° SSW 21:11:50 21° ESE
Cosmos 2219 Rocket 2.1 21:06:16 10° NNW 21:11:54 81° ENE 21:14:26 34° SE
Resurs 01 Rocket 4.5 21:13:16 10° W 21:14:14 11° W 21:15:13 10° WNW
BREEZE M DEB (TANK) 4.4 21:12:10 10° WSW 21:16:50 63° SSE 21:51:49 10° E
Cosmos 1515 Rocket 4.3 21:14:17 10° NNW 21:18:33 47° W 21:20:36 26° SSW
IRIDIUM 114 4.3 21:13:56 10° N 21:19:10 69° E 21:21:09 38° SSE
Terra 2.4 21:19:00 27° SSW 21:21:17 50° W 21:25:57 10° NNW
SL-16 R/B 4.4 21:18:50 10° N 21:22:43 18° NE 21:26:35 10° E
Cosmos 2285 Rocket 3.9 21:17:00 10° NNW 21:23:21 85° ENE 21:26:17 34° SSE
Cosmos 2266 Rocket 4.0 21:19:57 24° S 21:23:54 85° W 21:30:13 10° N
SL-16 R/B 4.3 21:20:37 10° WNW 21:24:12 17° W 21:27:47 10° SW
Cosmos 2315 Rocket 4.0 21:21:32 10° N 21:27:54 87° E 21:30:56 34° S
IRIDIUM 103 4.2 21:23:04 10° N 21:28:20 82° E 21:30:18 40° S
Cosmos 1515 4.1 21:26:05 10° N 21:29:45 47° ENE 21:30:04 46° E
ATLAS 5 CENTAUR R/B 2.3 21:24:40 10° NW 21:30:07 79° NE 21:33:05 33° SE
Cosmos 494 Rocket 4.1 21:32:48 43° SSE 21:33:56 51° ESE 21:38:55 10° NNE
Cosmos 2228 Rocket 3.1 21:29:39 10° NNW 21:34:05 79° W 21:35:17 48° S
SPOT 5 4.4 21:36:47 16° SW 21:39:00 23° W 21:42:35 10° NW
Okean 1 3.8 21:35:11 10° N 21:39:03 45° ENE 21:39:27 43° E
Cosmos 1602 4.1 21:39:19 48° E 21:39:19 48° E 21:43:00 10° NNE
COSMOS 2428 2.7 21:33:45 10° NNW 21:39:28 78° WSW 21:41:31 41° SSE
Meteor 1-19 Rocket 4.3 21:38:54 10° N 21:44:29 61° ENE 21:46:15 41° SE
Cosmos 1707 Rocket 3.6 21:40:53 10° N 21:45:14 63° ENE 21:45:57 54° SE
NOSS 3-1 (C) 4.4 21:38:03 10° NW 21:45:21 54° WSW 21:49:24 31° S
IRIDIUM 106 4.4 21:41:21 10° N 21:46:34 72° W 21:48:29 39° SSW
Cosmos 1048 Rocket 3.8 21:48:39 39° SSW 21:50:35 89° ESE 21:55:45 10° NNE
ALOS 2 3.0 21:59:22 45° ESE 22:00:06 50° ENE 22:04:22 10° N
Cosmos 2219 4.3 22:00:29 28° ESE 22:00:47 28° ESE 22:05:35 10° NE
COSMOS 2487 3.5 22:00:10 34° W 22:00:49 38° WNW 22:04:02 10° N
USA 229 DEB 4.0 21:54:06 10° NW 22:01:20 63° SW 22:04:27 37° S
USA 229 4.0 21:54:12 10° NW 22:01:27 63° SW 22:04:33 37° S
Cosmos 972 Rocket 4.4 21:59:17 25° SW 22:02:12 58° WNW 22:07:06 10° NNE
Cosmos 2360 Rocket 4.1 21:59:30 10° WNW 22:03:15 18° W 22:05:41 14° SW
Cosmos 1805 Rocket 4.0 22:02:11 41° SW 22:03:26 57° WNW 22:07:50 10° N
Cosmos 1302 Rocket 4.3 21:58:40 10° NNW 22:03:50 58° ENE 22:05:22 41° ESE
Cosmos 2084 Rocket 3.3 22:04:43 10° NW 22:08:56 90° NE 22:09:17 75° SE
Nadezhda 1 Rocket 4.3 22:04:39 10° N 22:10:59 57° ENE 22:13:14 38° SE
CZ-4C R/B 4.0 22:04:45 10° NW 22:11:02 39° NNE 22:18:23 10° E
USA 267 3.2 22:04:52 10° ENE 22:11:22 62° SE 22:14:48 29° SSW
Cosmos 1980 3.6 22:10:11 10° NNW 22:15:54 83° ENE 22:17:31 49° SE
NOSS 0 Rocket 3.9 22:10:48 10° NNW 22:17:01 72° WSW 22:18:54 46° S
Okean 1-7 4.3 22:15:13 10° N 22:18:57 29° ENE 22:19:30 28° E
NOSS 3-1 (A) 4.4 22:14:31 10° NW 22:21:49 52° WSW 22:25:00 36° S
COSMOS 2455 3.6 22:18:19 10° WSW 22:24:09 51° NW 22:30:03 10° NNE
Cosmos 2333 Rocket 3.6 22:20:23 10° NW 22:24:56 25° WSW 22:26:23 23° SW
Lacrosse 5 2.0 22:25:49 52° ESE 22:25:49 52° ESE 22:30:27 10° ENE
COBE Rocket 4.4 22:26:51 39° WSW 22:27:39 43° W 22:32:08 10° NNW
NOSS 2-2 (D) 4.3 22:25:36 10° NW 22:30:48 87° NE 22:33:24 40° SE
BREEZE-M R/B 2.4 22:31:56 78° SSE 22:31:56 78° SSE 22:37:04 10° E
Cosmos 2297 Rocket 2.3 22:32:07 51° SSE 22:33:00 57° ESE 22:38:34 10° NE
Cosmos 1500 3.3 22:34:31 68° WNW 22:34:31 68° WNW 22:38:15 10° N
Sich 1 4.2 22:34:10 30° WSW 22:35:21 35° WNW 22:39:21 10° N
Cosmos 2237 Rocket 2.2 22:32:34 10° NNW 22:38:15 74° WSW 22:39:29 55° S
Thor Agena Rocket 4.3 22:34:00 10° NNE 22:38:37 35° E 22:39:01 34° ESE
Cosmos 1470 Rocket 3.3 22:43:08 82° SE 22:43:13 83° E 22:47:34 10° N
Cosmos 1633 Rocket 3.3 22:44:04 53° WSW 22:44:33 57° WNW 22:48:52 10° N
Cosmos 2227 Rocket 2.3 22:44:30 50° SE 22:45:15 54° ESE 22:50:46 10° NE
USA 234 3.1 22:42:59 33° SE 22:46:15 83° SW 22:52:52 10° NW
Cosmos 1933 Rocket 3.6 22:49:28 63° ESE 22:49:35 64° E 22:54:00 10° NNE
Cosmos 1666 Rocket 4.4 22:50:45 37° WSW 22:51:35 41° WNW 22:55:50 10° N
Cosmos 2242 Rocket 3.7 22:49:04 10° N 22:53:28 64° ENE 22:53:45 62° E
Cosmos 1340 Rocket 3.0 22:54:24 61° ENE 22:54:24 61° ENE 22:57:55 10° NNE
Cosmos 2219 Rocket 3.9 22:51:33 10° WNW 22:55:08 18° W 22:56:08 17° WSW
Cosmos 1378 3.5 22:52:36 10° N 22:55:52 58° NE 22:55:52 58° NE
Cosmos 2263 Rocket 4.2 22:57:34 14° ESE 22:58:20 14° E 23:01:10 10° ENE
Cosmos 2181 Rocket 4.4 22:59:33 10° N 23:05:46 55° ENE 23:08:02 37° SE
SL-16 R/B 2.3 23:02:11 10° NNW 23:07:52 74° ENE 23:09:37 45° SE
Cosmos 2251 Rocket 4.3 23:08:14 35° ESE 23:08:43 36° ESE 23:13:33 10° NE
ATLAS 5 CENTAUR R/B 3.6 23:09:53 10° WNW 23:14:31 25° WSW 23:14:35 25° WSW
Okean 3 3.6 23:11:35 10° N 23:15:50 62° ENE 23:16:01 62° E
Intercosmos 25 Rocket 3.6 23:24:02 71° SSE 23:24:25 78° E 23:30:21 10° NNE
Cosmos 1743 3.6 23:25:44 41° ENE 23:25:44 41° ENE 23:29:00 10° NNE
Cosmos 1666 3.9 23:26:25 34° WNW 23:26:25 34° WNW 23:29:59 10° N
Meteor 1-11 Rocket 3.6 23:25:58 57° S 23:27:07 82° E 23:32:40 10° NNE
Helios 1A 4.5 23:27:02 25° E 23:28:18 30° ENE 23:31:59 10° N
Cosmos 1703 Rocket 3.8 23:25:21 10° NNW 23:29:38 55° W 23:29:38 55° W
ARGOS Delta rocket 4.5 23:27:55 10° NNE 23:32:13 38° E 23:32:38 37° ESE
Cosmos 1709 Rocket 4.0 23:30:39 47° SSW 23:32:38 78° W 23:39:03 10° N
PSLV R/B 3.6 23:28:44 10° NNE 23:33:32 87° WNW 23:34:07 69° SSW
Cosmos 1992 Rocket 4.0 23:31:00 10° NNW 23:36:09 59° WSW 23:36:41 56° SW
ASTEX 1 3.9 23:35:16 41° ESE 23:36:29 51° ENE 23:41:16 10° N
ALOS 2 4.4 23:36:46 19° W 23:36:46 19° W 23:39:56 10° NW
Cosmos 909 Rocket 4.3 23:36:15 39° SW 23:39:05 86° NW 23:47:06 10° NE
Cosmos 1943 4.4 23:34:30 10° NNW 23:39:52 39° NE 23:44:45 12° ESE
SL-8 R/B 4.2 23:43:02 45° ESE 23:43:02 45° ESE 23:46:47 10° E
Cosmos 1733 Rocket 4.1 23:41:40 33° ESE 23:42:16 35° E 23:46:19 10° NNE
CZ-2D R/B 3.7 23:39:16 10° NE 23:43:37 24° E 23:45:32 20° ESE
Cosmos 2219 3.7 23:42:22 35° WSW 23:44:37 56° WNW 23:50:18 10° NNE
Cosmos 1066 Rocket 4.4 23:41:35 10° NNW 23:47:23 61° W 23:48:43 48° SW
Meteor 1-23 Rocket 4.2 23:48:27 10° NNW 23:54:12 78° W 23:55:43 51° S
YAOGAN 11 4.4 23:53:53 50° SE 23:54:52 65° ENE 23:59:20 10° N
